Miscellaneous Local Product
Issued by NWS Hastings, NE

Home | Current Version | Previous Version | Text Only | Print | Product List | Glossary Off
Versions: 1 2 3 4 5 6 7 8 9 10 11 12 13 14 15 16 17 18 19 20 21 22 23 24 25 26 27 28 29 30 31 32 33 34 35 36 37 38 39 40 41 42 43 44 45 46 47 48 49 50

000
AXUS43 KGID 271102
MISGRI

GID CWA HOURLY WEATHER ROUNDUP
NATIONAL WEATHER SERVICE HASTINGS NE
600 AM CDT WED AUG 27 2014

NOTE: "FAIR" INDICATES FEW OR NO CLOUDS BELOW 12,000 FEET WITH NO
SIGNIFICANT WEATHER AND/OR OBSTRUCTIONS TO VISIBILITY.

...SOUTH CENTRAL NEBRASKA...

CITY           SKY/WX    TMP DP  RH WIND       PRES   REMARKS
GRAND ISLAND   LGT RAIN  69  66  90 W9        30.13S
HASTINGS       LGT RAIN  68  65  90 NW7       30.12S
KEARNEY        CLOUDY    66  64  94 SE7       30.12F
ORD            CLOUDY    67  66  97 CALM      30.10F FOG
YORK           CLOUDY    68 N/A N/A SW7       30.11R
AURORA         TSTM      68  68 100 W3        30.12R
LEXINGTON      CLOUDY    68  67  96 S8        30.08S
HOLDREGE       LGT RAIN  67  65  95 CALM      30.08F
HEBRON         TSTM      69  66  89 CALM      30.08R

...NEBRASKA PANHANDLE...

CITY           SKY/WX    TMP DP  RH WIND       PRES   REMARKS
CHADRON        CLOUDY    62  58  86 E3        30.12F
ALLIANCE       MOCLDY    62  61  96 E3        30.11F
SCOTTSBLUFF    MOCLDY    61  60  97 CALM      30.12F
SIDNEY         PTCLDY    63  57  81 S5        30.13F

...WESTERN AND NORTH CENTRAL NEBRASKA...

CITY           SKY/WX    TMP DP  RH WIND       PRES   REMARKS
VALENTINE      CLOUDY    68  67  96 SE6       30.12S
AINSWORTH      HVY RAIN  66  65  96 SE6       30.11F
ONEILL         CLOUDY    67  65  96 SE10      30.10F
BROKEN BOW     CLOUDY    69  67  93 E5        30.10S FOG
IMPERIAL       MOCLDY    64  62  93 CALM      30.11F
NORTH PLATTE   CLOUDY    66  64  93 SE3       30.04F
MCCOOK         CLOUDY    66  65  96 SE7       30.10S

...EASTERN NEBRASKA...

CITY           SKY/WX    TMP DP  RH WIND       PRES   REMARKS
NORFOLK        CLOUDY    65  63  93 E8        30.10F
SO SIOUX CITY  CLOUDY    65  59  81 E8        30.11F
TEKAMAH        CLOUDY    66  63  90 N9        30.12R
COLUMBUS       CLOUDY    64  63  94 NE6       30.10S
ALBION         CLOUDY    66  63  90 E3        30.10S
OMAHA EPPLEY   MOCLDY    68  64  87 VRB6      30.09R
OFFUTT AFB     MOCLDY    67  67 100 E8        30.09R
MILLARD        MOCLDY    70  65  85 CALM      30.09R
LINCOLN        CLOUDY    69  66  90 E3        30.08S
NEBRASKA CITY  MOCLDY    69  69 100 CALM      30.08S
BEATRICE       CLOUDY    69  68  98 E5        30.08R
FALLS CITY     CLOUDY    72  67  84 E8G17     30.09R

...NORTHERN KANSAS...

CITY           SKY/WX    TMP DP  RH WIND       PRES   REMARKS
GOODLAND       CLOUDY    64  63  96 E6        30.15R
HILL CITY      CLOUDY    69  66  90 CALM      30.11F
NORTON         SUNNY     68  64  88 CALM      30.10S
PHILLIPSBURG   RAIN      70  70 100 E3        30.09F
SMITH CENTER   CLEAR     68  66  94 CALM      30.10R
BELOIT         CLEAR     72  70  94 E3        30.05F
HAYS           CLOUDY    72  64  78 W5        30.10S
RUSSELL        CLOUDY    72  67  84 SW5       30.09R
CONCORDIA      CLOUDY    70  69  97 SE3       30.06F
SALINA         MOCLDY    74  68  81 S3        30.07R
TOPEKA         CLEAR     76  72  87 SE3       30.05S



USA.gov is the U.S. government's official web portal to all federal, state and local government web resources and services.